Location: Unspecified
(0.0000°N, 0.0000°E)
Time: 10:41:15
(UTC+00:00)

Vanguard 1 - Visible Passes

Search period start: 16 June 2025 00:00
Search period end: 26 June 2025 00:00
Orbit: 649 x 3822 km, 34.3° (Epoch: 15 June)

Date Brightness Start Highest point End Pass type
(mag) Time Alt. Az. Time Alt. Az. Time Alt. Az.
16 Jun 11.8 04:37:10 10° S 04:41:28 21° SE 04:47:27 10° E visible
16 Jun 12.1 19:09:43 10° WNW 19:27:34 59° SW 19:34:48 23° SSE visible
16 Jun 13.1 21:46:57 10° SW 21:47:23 10° SW 21:47:23 10° SW visible
17 Jun 11.5 04:55:35 11° SSW 05:00:36 33° SE 05:08:40 10° ENE visible
17 Jun 12.2 19:30:43 10° WNW 19:46:53 44° SW 19:53:18 23° SSE visible
18 Jun 10.9 05:14:13 10° SW 05:19:44 53° SE 05:29:14 10° ENE visible
18 Jun 12.3 19:52:15 10° W 20:06:14 32° SW 20:11:47 21° S visible
19 Jun 10.5 05:33:15 10° SW 05:39:01 82° SE 05:49:22 10° NE visible
19 Jun 12.6 20:14:32 10° W 20:25:40 23° SW 20:30:15 18° S visible
20 Jun 11.8 03:38:32 16° SE 03:38:36 16° SE 03:42:15 10° ESE visible
20 Jun 12.6 18:01:36 10° WNW 18:22:33 63° SW 18:34:40 10° SE visible
20 Jun 12.9 20:37:50 10° WSW 20:45:19 16° SW 20:48:44 14° SSW visible
21 Jun 11.0 03:57:03 27° SSE 03:57:47 27° SE 04:03:30 10° E visible
21 Jun 12.8 18:22:32 10° WNW 18:42:03 49° SW 18:53:39 10° SSE visible
21 Jun 13.1 21:04:30 10° SW 21:05:14 10° SW 21:05:58 10° SSW visible
22 Jun 10.2 04:15:33 39° S 04:16:57 48° SE 04:23:57 10° ENE visible
22 Jun 12.8 18:44:01 10° WNW 19:01:34 38° SW 19:12:26 10° SSE visible
23 Jun 9.8 04:34:04 38° SW 04:36:11 82° SE 04:43:56 10° NE visible
23 Jun 12.9 19:06:10 10° W 19:21:11 28° SW 19:31:02 10° SSE visible
24 Jun 10.1 04:52:34 25° WSW 04:55:38 60° NNW 05:03:33 10° NE visible
24 Jun 13.0 19:29:10 10° W 19:41:01 21° SW 19:49:22 10° S visible
25 Jun 12.2 02:58:28 13° E 02:58:28 13° E 02:59:23 10° E visible
25 Jun 10.9 05:11:04 14° W 05:15:17 37° NNW 05:22:50 10° NE visible
25 Jun 13.1 19:53:15 10° WSW 20:01:07 15° SW 20:07:14 10° S visible
